Regional Weather Roundup
Issued by NWS Cleveland, OH

Home | Current Version | Previous Version | Graphics & Text | Print | Product List | Glossary On
Versions: 1 2 3 4 5 6 7 8 9 10 11 12 13 14 15 16 17 18 19 20 21 22 23 24 25 26 27 28 29 30 31 32 33 34 35 36 37 38 39 40 41 42 43 44 45 46 47 48 49 50
824
ASUS41 KCLE 250510
RWRCLE
OHIO REGIONAL WEATHER ROUNDUP
NATIONAL WEATHER SERVICE CLEVELAND, OH
100 AM EDT WED APR 25 2018

NOTE: "FAIR" INDICATES FEW OR NO CLOUDS BELOW 12,000 FEET WITH NO
SIGNIFICANT WEATHER AND/OR OBSTRUCTIONS TO VISIBILITY.

OHZ001>008-015>018-024>027-034-035-043-044-250600-
   NORTHWEST OHIO

CITY           SKY/WX    TMP DP  RH WIND       PRES   REMARKS
DEFIANCE       CLOUDY    50  48  93 N7        29.94F FOG
FINDLAY        FOG       51  48  89 N7        29.90F VSB 3/4
TOLEDO EXPRESS CLOUDY    50  50 100 NE5       29.93F FOG
TOLEDO EXEC    CLOUDY    48  46  93 NE5       29.93F FOG
LIMA           FOG       51  51 100 N6        29.91F VSB 1/4
$$

OHZ009>014-019>023-028>033-038-089-250600-
   NORTHEAST OHIO

CITY           SKY/WX    TMP DP  RH WIND       PRES   REMARKS
CLE-HOPKINS    LGT RAIN  53  50  89 SE3       29.94F
CLE-LAKEFRONT  LGT RAIN  52  48  86 CALM      29.91F
CUY CO. ARPT   NOT AVBL
LORAIN-ELYRIA  CLOUDY    51  47  86 NE8       29.91F
ASHTABULA      CLOUDY    51  50  96 E5        29.94F
AKRON-CANTON   CLOUDY    52  48  86 E8        29.91F
WOOSTER        CLOUDY    50  50 100 E5        29.91F FOG
MANSFIELD      CLOUDY    51  51 100 E6        29.90F FOG
YOUNGSTOWN     LGT RAIN  50  49  96 E8        29.92F
$$

OHZ042-051>053-060>062-070>072-077>081-250600-
  SOUTHWEST OHIO

CITY           SKY/WX    TMP DP  RH WIND       PRES   REMARKS
CINC-COVINGTON CLOUDY    53  52  96 N8        29.90S
CINC-LUNKEN    CLOUDY    55  54  96 N5        29.91S
HAMILTON       CLOUDY    54  52  93 N3        29.91F
DAYTON         LGT RAIN  52  52 100 N5        29.91F VSB 1/2
WRIGHT-PAT AFB NOT AVBL
DAYTON GENERAL CLOUDY    54  52  93 N8        29.89S FOG
WILMINGTON     FOG       55  54  96 N5        29.89S VSB 1/2
$$

OHZ036-037-039>041-045>050-054>059-063>069-073>076-082>088-250600-
  CENTRAL AND SOUTHEAST OHIO

CITY           SKY/WX    TMP DP  RH WIND       PRES   REMARKS
COLUMBUS       CLOUDY    54  51  90 N3        29.88F
OSU AIRPORT    CLOUDY    53  52  96 N3        29.89F FOG
BOLTON FIELD   CLOUDY    53  52  97 CALM      29.89S
RICKENBACK AFB CLOUDY    52  52 100 CALM      29.88S
NEWARK         LGT RAIN  53  51  93 CALM      29.88F FOG
MARION         CLOUDY    52  50  93 N5        29.91F
LANCASTER      CLOUDY    52  51  97 E5        29.89S
ZANESVILLE     CLOUDY    53  50  89 NE5       29.88F
NEW PHILLY     NOT AVBL
$$




USA.gov is the U.S. government's official web portal to all federal, state and local government web resources and services.